QPF
0.02 0.02 0.02 0.03 0.03 0.02 0.02 0.01 0.01 0.01 0.01 0.00 0.01 0.01 0.01 0.03 0.05 0.05 0.04 0.03 0.02 0.01 0.01 0.01 0.01 0.01 0.01 0.02 0.03 0.04 0.04 0.04 0.03 0.02 0.02 0.03 0.04 0.05
0.02 0.01 0.02 0.02 0.02 0.02 0.02 0.01 0.01 0.01 0.01 0.01 0.01 0.01 0.01 0.02 0.04 0.04 0.04 0.03 0.02 0.02 0.01 0.01 0.01 0.01 0.01 0.01 0.02 0.03 0.03 0.03 0.03 0.02 0.02 0.03 0.05 0.06
0.03 0.02 0.01 0.01 0.01 0.01 0.01 0.01 0.01 0.01 0.01 0.00 0.01 0.01 0.01 0.02 0.03 0.03 0.03 0.03 0.02 0.01 0.01 0.01 0.01 0.01 0.01 0.01 0.02 0.03 0.03 0.02 0.02 0.03 0.03 0.03 0.04 0.06
0.03 0.02 0.02 0.01 0.01 0.01 0.01 0.01 0.01 0.01 0.01 0.01 0.01 0.01 0.01 0.02 0.03 0.03 0.03 0.03 0.02 0.02 0.01 0.01 0.01 0.01 0.01 0.01 0.01 0.02 0.03 0.03 0.02 0.02 0.02 0.03 0.04 0.05
0.02 0.02 0.01 0.02 0.02 0.01 0.01 0.01 0.01 0.01 0.01 0.01 0.01 0.01 0.01 0.02 0.02 0.03 0.03 0.03 0.03 0.02 0.01 0.01 0.01 0.00 0.00 0.00 0.00 0.01 0.02 0.03 0.03 0.02 0.02 0.02 0.03 0.04
0.02 0.02 0.01 0.01 0.02 0.02 0.02 0.02 0.02 0.02 0.02 0.02 0.01 0.01 0.01 0.02 0.02 0.03 0.02 0.02 0.03 0.04 0.04 0.03 0.02 0.02 0.01 0.00 0.00 0.00 0.01 0.02 0.02 0.03 0.02 0.02 0.03 0.03
0.06 0.05 0.04 0.04 0.03 0.03 0.03 0.03 0.03 0.02 0.02 0.02 0.02 0.01 0.01 0.02 0.02 0.03 0.03 0.02 0.02 0.02 0.02 0.03 0.04 0.04 0.03 0.02 0.01 0.00 0.01 0.01 0.02 0.02 0.02 0.03 0.03 0.03
0.04 0.04 0.04 0.04 0.04 0.03 0.03 0.03 0.03 0.03 0.02 0.02 0.02 0.01 0.01 0.02 0.02 0.03 0.03 0.03 0.02 0.02 0.01 0.00 0.01 0.02 0.03 0.03 0.02 0.01 0.01 0.01 0.01 0.02 0.02 0.02 0.03 0.03
0.03 0.03 0.03 0.03 0.03 0.02 0.02 0.02 0.02 0.02 0.02 0.02 0.02 0.01 0.01 0.01 0.02 0.03 0.03 0.03 0.02 0.02 0.01 0.01 0.00 0.00 0.00 0.01 0.02 0.02 0.02 0.01 0.01 0.01 0.02 0.02 0.03 0.03
0.02 0.02 0.02 0.02 0.02 0.02 0.02 0.02 0.01 0.01 0.02 0.01 0.01 0.01 0.01 0.01 0.02 0.03 0.03 0.03 0.02 0.01 0.01 0.01 0.00 0.00 0.00 0.00 0.00 0.01 0.01 0.02 0.02 0.02 0.02 0.02 0.03 0.03
0.01 0.01 0.01 0.02 0.02 0.02 0.02 0.02 0.01 0.01 0.02 0.02 0.02 0.02 0.02 0.02 0.03 0.04 0.05 0.04 0.03 0.01 0.01 0.01 0.00 0.00 0.00 0.00 0.00 0.00 0.00 0.00 0.01 0.01 0.02 0.02 0.02 0.03
0.01 0.01 0.00 0.01 0.01 0.02 0.02 0.02 0.02 0.01 0.01 0.01 0.01 0.01 0.01 0.01 0.02 0.02 0.03 0.04 0.03 0.02 0.01 0.01 0.00 0.00 0.00 0.00 0.00 0.00 0.00 0.00 0.01 0.01 0.01 0.01 0.02 0.02
0.01 0.00 0.00 0.00 0.01 0.01 0.01 0.02 0.02 0.02 0.02 0.02 0.02 0.01 0.01 0.01 0.01 0.02 0.03 0.04 0.04 0.03 0.02 0.02 0.01 0.01 0.01 0.01 0.00 0.00 0.00 0.01 0.01 0.01 0.01 0.02 0.02 0.02
0.01 0.01 0.01 0.01 0.01 0.01 0.01 0.01 0.01 0.02 0.02 0.02 0.01 0.01 0.01 0.01 0.01 0.01 0.02 0.03 0.03 0.03 0.02 0.02 0.03 0.02 0.02 0.02 0.01 0.01 0.00 0.01 0.01 0.01 0.01 0.02 0.02 0.03
0.01 0.01 0.01 0.01 0.01 0.01 0.01 0.01 0.01 0.01 0.01 0.01 0.01 0.01 0.01 0.01 0.01 0.01 0.02 0.02 0.02 0.02 0.02 0.02 0.02 0.03 0.03 0.03 0.02 0.01 0.01 0.01 0.01 0.01 0.01 0.02 0.02 0.02
0.01 0.01 0.01 0.01 0.01 0.01 0.01 0.01 0.01 0.01 0.01 0.01 0.01 0.01 0.01 0.01 0.01 0.01 0.02 0.02 0.03 0.02 0.02 0.02 0.02 0.03 0.03 0.03 0.02 0.02 0.02 0.01 0.01 0.01 0.02 0.02 0.02 0.02
0.02 0.02 0.02 0.02 0.01 0.01 0.01 0.01 0.01 0.01 0.02 0.02 0.02 0.02 0.02 0.01 0.01 0.01 0.02 0.02 0.03 0.02 0.02 0.02 0.02 0.02 0.02 0.02 0.02 0.02 0.02 0.01 0.01 0.01 0.02 0.02 0.03 0.02
0.03 0.03 0.02 0.01 0.01 0.01 0.01 0.01 0.01 0.01 0.01 0.01 0.02 0.02 0.02 0.02 0.02 0.01 0.02 0.02 0.02 0.02 0.02 0.02 0.03 0.03 0.03 0.02 0.01 0.01 0.01 0.01 0.01 0.01 0.02 0.02 0.02 0.02
0.02 0.02 0.01 0.01 0.01 0.01 0.01 0.01 0.01 0.01 0.01 0.01 0.02 0.02 0.02 0.02 0.02 0.02 0.02 0.02 0.03 0.02 0.02 0.02 0.03 0.04 0.04 0.02 0.01 0.01 0.01 0.01 0.01 0.01 0.01 0.02 0.02 0.02
0.01 0.01 0.01 0.01 0.01 0.01 0.01 0.01 0.01 0.01 0.01 0.01 0.01 0.01 0.02 0.02 0.02 0.02 0.02 0.03 0.03 0.03 0.03 0.03 0.03 0.04 0.04 0.03 0.01 0.00 0.00 0.01 0.01 0.01 0.02 0.02 0.02 0.02
0.01 0.01 0.01 0.01 0.01 0.01 0.01 0.01 0.01 0.01 0.01 0.01 0.01 0.01 0.02 0.02 0.03 0.02 0.03 0.03 0.03 0.04 0.03 0.03 0.03 0.04 0.04 0.05 0.04 0.01 0.01 0.01 0.01 0.01 0.02 0.02 0.03 0.03
0.01 0.01 0.01 0.01 0.01 0.01 0.01 0.01 0.01 0.01 0.01 0.01 0.01 0.01 0.01 0.02 0.02 0.02 0.03 0.03 0.04 0.04 0.03 0.03 0.03 0.04 0.05 0.05 0.04 0.02 0.01 0.01 0.01 0.02 0.02 0.03 0.03 0.03
0.01 0.01 0.01 0.01 0.01 0.01 0.01 0.01 0.01 0.01 0.01 0.01 0.01 0.01 0.01 0.02 0.02 0.02 0.03 0.03 0.03 0.03 0.04 0.04 0.04 0.04 0.04 0.04 0.04 0.03 0.02 0.02 0.02 0.03 0.03 0.03 0.03 0.02
MSLP
1018.77 1019.70 1020.62 1021.54 1022.48 1023.45 1024.46 1025.50 1026.55 1027.58 1028.56 1029.44 1030.20 1030.81 1031.27 1031.60 1031.84 1032.01 1032.15 1032.31 1032.49 1032.70 1032.94 1033.17 1033.37 1033.52 1033.60 1033.60 1033.53 1033.37 1033.16 1032.90 1032.59 1032.24 1031.85 1031.42 1030.96 1030.49
1018.35 1019.24 1020.10 1020.97 1021.85 1022.79 1023.78 1024.83 1025.91 1027.01 1028.08 1029.08 1029.97 1030.72 1031.31 1031.77 1032.10 1032.34 1032.54 1032.72 1032.91 1033.11 1033.33 1033.55 1033.75 1033.90 1034.00 1034.02 1033.97 1033.85 1033.67 1033.44 1033.17 1032.86 1032.53 1032.16 1031.77 1031.37
1017.91 1018.78 1019.61 1020.45 1021.30 1022.21 1023.19 1024.24 1025.34 1026.49 1027.62 1028.71 1029.70 1030.57 1031.28 1031.85 1032.28 1032.60 1032.86 1033.08 1033.28 1033.49 1033.70 1033.91 1034.09 1034.24 1034.34 1034.37 1034.34 1034.25 1034.11 1033.92 1033.70 1033.45 1033.17 1032.87 1032.56 1032.23
1017.49 1018.36 1019.20 1020.02 1020.87 1021.77 1022.73 1023.78 1024.89 1026.05 1027.22 1028.36 1029.42 1030.36 1031.17 1031.83 1032.35 1032.76 1033.08 1033.34 1033.58 1033.80 1034.01 1034.20 1034.38 1034.52 1034.61 1034.65 1034.63 1034.57 1034.46 1034.32 1034.15 1033.95 1033.74 1033.51 1033.26 1033.00
1017.15 1018.05 1018.91 1019.75 1020.61 1021.50 1022.46 1023.49 1024.59 1025.74 1026.91 1028.06 1029.14 1030.13 1030.98 1031.71 1032.31 1032.79 1033.18 1033.50 1033.77 1034.01 1034.23 1034.43 1034.60 1034.73 1034.81 1034.85 1034.84 1034.79 1034.71 1034.61 1034.49 1034.35 1034.20 1034.02 1033.84 1033.63
1016.98 1017.92 1018.81 1019.68 1020.56 1021.46 1022.41 1023.41 1024.48 1025.59 1026.72 1027.83 1028.89 1029.87 1030.75 1031.51 1032.16 1032.70 1033.15 1033.53 1033.86 1034.14 1034.38 1034.59 1034.75 1034.87 1034.95 1034.98 1034.97 1034.93 1034.87 1034.79 1034.71 1034.62 1034.52 1034.40 1034.26 1034.10
1017.03 1018.01 1018.94 1019.85 1020.74 1021.65 1022.58 1023.55 1024.57 1025.61 1026.66 1027.70 1028.70 1029.64 1030.50 1031.26 1031.94 1032.52 1033.03 1033.48 1033.86 1034.19 1034.46 1034.69 1034.86 1034.98 1035.04 1035.06 1035.04 1034.99 1034.94 1034.88 1034.82 1034.76 1034.70 1034.63 1034.53 1034.41
1017.33 1018.34 1019.31 1020.24 1021.15 1022.05 1022.97 1023.89 1024.84 1025.80 1026.75 1027.70 1028.61 1029.47 1030.28 1031.02 1031.70 1032.31 1032.87 1033.37 1033.81 1034.19 1034.51 1034.76 1034.95 1035.06 1035.11 1035.11 1035.07 1035.01 1034.94 1034.88 1034.83 1034.79 1034.76 1034.71 1034.65 1034.56
1017.86 1018.89 1019.87 1020.81 1021.73 1022.63 1023.52 1024.40 1025.27 1026.14 1027.00 1027.83 1028.64 1029.41 1030.14 1030.84 1031.50 1032.12 1032.71 1033.25 1033.74 1034.17 1034.53 1034.82 1035.01 1035.13 1035.17 1035.14 1035.08 1034.99 1034.90 1034.82 1034.77 1034.73 1034.71 1034.69 1034.65 1034.57
1018.56 1019.57 1020.55 1021.50 1022.42 1023.31 1024.17 1025.01 1025.82 1026.61 1027.37 1028.10 1028.80 1029.47 1030.13 1030.77 1031.39 1032.00 1032.60 1033.17 1033.69 1034.17 1034.56 1034.86 1035.07 1035.18 1035.21 1035.16 1035.06 1034.94 1034.82 1034.72 1034.65 1034.61 1034.58 1034.57 1034.54 1034.48
1019.33 1020.32 1021.28 1022.22 1023.13 1024.01 1024.86 1025.67 1026.44 1027.16 1027.85 1028.49 1029.09 1029.68 1030.25 1030.82 1031.40 1031.98 1032.57 1033.14 1033.68 1034.17 1034.58 1034.90 1035.11 1035.21 1035.22 1035.14 1035.01 1034.86 1034.71 1034.58 1034.48 1034.42 1034.39 1034.37 1034.34 1034.29
1020.11 1021.05 1021.99 1022.91 1023.81 1024.68 1025.53 1026.32 1027.07 1027.76 1028.39 1028.97 1029.50 1030.01 1030.51 1031.01 1031.53 1032.07 1032.62 1033.18 1033.71 1034.19 1034.60 1034.91 1035.12 1035.20 1035.19 1035.09 1034.92 1034.74 1034.55 1034.39 1034.27 1034.19 1034.14 1034.10 1034.07 1034.01
1020.85 1021.74 1022.64 1023.53 1024.42 1025.30 1026.15 1026.95 1027.69 1028.36 1028.97 1029.51 1029.99 1030.44 1030.88 1031.32 1031.78 1032.26 1032.77 1033.28 1033.78 1034.23 1034.61 1034.90 1035.08 1035.14 1035.10 1034.97 1034.77 1034.56 1034.34 1034.15 1033.99 1033.89 1033.81 1033.76 1033.71 1033.64
1021.55 1022.39 1023.24 1024.11 1024.99 1025.87 1026.72 1027.53 1028.28 1028.96 1029.55 1030.08 1030.53 1030.94 1031.33 1031.72 1032.11 1032.54 1032.98 1033.43 1033.88 1034.28 1034.61 1034.86 1034.99 1035.02 1034.94 1034.78 1034.55 1034.30 1034.05 1033.83 1033.65 1033.51 1033.41 1033.33 1033.25 1033.15
1022.26 1023.04 1023.85 1024.69 1025.55 1026.42 1027.27 1028.09 1028.85 1029.54 1030.14 1030.66 1031.10 1031.49 1031.84 1032.18 1032.52 1032.89 1033.26 1033.65 1034.02 1034.35 1034.62 1034.81 1034.89 1034.86 1034.73 1034.53 1034.26 1033.97 1033.69 1033.43 1033.21 1033.03 1032.89 1032.78 1032.67 1032.54
1023.01 1023.74 1024.50 1025.31 1026.14 1026.99 1027.84 1028.65 1029.42 1030.11 1030.72 1031.24 1031.67 1032.05 1032.38 1032.69 1032.99 1033.30 1033.61 1033.93 1034.23 1034.48 1034.67 1034.78 1034.79 1034.69 1034.50 1034.24 1033.92 1033.58 1033.25 1032.94 1032.67 1032.45 1032.26 1032.10 1031.95 1031.78
1023.87 1024.54 1025.26 1026.02 1026.81 1027.63 1028.45 1029.25 1030.00 1030.68 1031.28 1031.80 1032.24 1032.61 1032.93 1033.22 1033.50 1033.77 1034.03 1034.28 1034.51 1034.68 1034.79 1034.81 1034.73 1034.55 1034.28 1033.94 1033.55 1033.14 1032.74 1032.37 1032.04 1031.76 1031.52 1031.30 1031.10 1030.89
1024.84 1025.47 1026.13 1026.84 1027.58 1028.34 1029.12 1029.87 1030.59 1031.25 1031.84 1032.35 1032.79 1033.17 1033.49 1033.78 1034.04 1034.29 1034.51 1034.71 1034.87 1034.97 1034.98 1034.91 1034.73 1034.45 1034.09 1033.65 1033.17 1032.68 1032.19 1031.74 1031.34 1030.98 1030.67 1030.40 1030.14 1029.90
1025.91 1026.49 1027.09 1027.73 1028.41 1029.11 1029.81 1030.51 1031.18 1031.80 1032.37 1032.87 1033.31 1033.69 1034.03 1034.33 1034.59 1034.83 1035.03 1035.18 1035.28 1035.31 1035.24 1035.07 1034.79 1034.40 1033.93 1033.39 1032.80 1032.21 1031.63 1031.08 1030.59 1030.15 1029.77 1029.44 1029.14 1028.85
1027.01 1027.53 1028.08 1028.65 1029.25 1029.88 1030.50 1031.13 1031.74 1032.31 1032.85 1033.33 1033.77 1034.16 1034.51 1034.82 1035.10 1035.33 1035.52 1035.65 1035.70 1035.65 1035.50 1035.24 1034.86 1034.37 1033.79 1033.13 1032.44 1031.74 1031.05 1030.41 1029.83 1029.32 1028.87 1028.48 1028.14 1027.83
1028.07 1028.54 1029.02 1029.53 1030.05 1030.59 1031.14 1031.69 1032.22 1032.74 1033.24 1033.70 1034.13 1034.53 1034.89 1035.22 1035.50 1035.74 1035.92 1036.02 1036.03 1035.93 1035.70 1035.36 1034.88 1034.29 1033.61 1032.86 1032.06 1031.27 1030.49 1029.77 1029.11 1028.52 1028.01 1027.58 1027.21 1026.90
1029.02 1029.44 1029.86 1030.29 1030.73 1031.19 1031.66 1032.13 1032.60 1033.06 1033.51 1033.95 1034.36 1034.75 1035.12 1035.45 1035.74 1035.97 1036.14 1036.21 1036.18 1036.03 1035.75 1035.33 1034.79 1034.12 1033.36 1032.53 1031.66 1030.79 1029.95 1029.16 1028.44 1027.81 1027.26 1026.81 1026.43 1026.12
1029.83 1030.18 1030.54 1030.90 1031.27 1031.65 1032.04 1032.44 1032.84 1033.24 1033.64 1034.04 1034.42 1034.80 1035.15 1035.47 1035.75 1035.96 1036.11 1036.16 1036.09 1035.90 1035.57 1035.11 1034.51 1033.80 1032.99 1032.12 1031.21 1030.30 1029.43 1028.61 1027.87 1027.21 1026.66 1026.20 1025.82 1025.53
Thickness
5472 5473 5473 5473 5474 5474 5474 5475 5474 5474 5479 5481 5481 5483 5483 5484 5485 5486 5487 5489 5490 5492 5493 5495 5497 5498 5499 5501 5503 5505 5508 5510 5513 5516 5519 5522 5524 5527
5459 5460 5460 5461 5461 5461 5462 5463 5463 5463 5465 5469 5468 5470 5471 5471 5472 5473 5475 5476 5478 5480 5482 5483 5484 5486 5487 5489 5491 5493 5495 5498 5500 5504 5507 5510 5513 5517
5446 5447 5448 5448 5448 5449 5449 5450 5450 5450 5451 5455 5455 5457 5458 5459 5460 5461 5462 5464 5466 5467 5469 5471 5472 5473 5474 5476 5478 5480 5483 5485 5488 5491 5494 5498 5501 5505
5433 5434 5435 5435 5436 5437 5436 5437 5438 5438 5438 5441 5443 5443 5444 5445 5447 5448 5450 5452 5453 5455 5457 5458 5459 5460 5461 5463 5465 5467 5470 5472 5475 5478 5482 5486 5490 5493
5421 5422 5422 5422 5423 5424 5424 5425 5425 5426 5425 5426 5429 5430 5431 5432 5433 5436 5437 5439 5440 5442 5444 5445 5446 5448 5449 5450 5452 5454 5457 5459 5462 5465 5468 5472 5476 5480
5408 5409 5409 5410 5411 5411 5411 5411 5412 5412 5412 5413 5415 5417 5418 5419 5419 5421 5424 5426 5428 5429 5431 5432 5433 5434 5436 5437 5439 5441 5444 5446 5448 5451 5455 5459 5463 5467
5394 5395 5396 5397 5398 5398 5398 5398 5398 5398 5399 5400 5402 5403 5404 5404 5405 5407 5409 5412 5415 5416 5418 5419 5420 5422 5422 5424 5425 5428 5430 5433 5435 5438 5441 5445 5449 5453
5381 5382 5383 5384 5384 5384 5385 5386 5385 5385 5385 5386 5388 5389 5390 5390 5390 5391 5392 5395 5401 5404 5402 5406 5405 5408 5410 5411 5413 5414 5417 5419 5422 5425 5428 5431 5435 5439
5368 5369 5370 5371 5370 5370 5371 5372 5372 5371 5372 5372 5373 5374 5375 5376 5376 5377 5376 5378 5383 5385 5384 5391 5392 5394 5396 5398 5400 5401 5403 5406 5408 5411 5413 5417 5420 5424
5355 5356 5356 5357 5356 5356 5357 5357 5357 5358 5358 5358 5360 5361 5359 5359 5359 5359 5359 5362 5367 5369 5367 5373 5378 5379 5383 5385 5387 5388 5390 5392 5394 5397 5400 5403 5407 5410
5341 5342 5342 5343 5343 5343 5344 5344 5344 5344 5343 5343 5344 5345 5345 5345 5344 5343 5344 5345 5351 5356 5354 5355 5362 5363 5368 5372 5373 5374 5375 5377 5380 5383 5386 5389 5393 5396
5328 5328 5329 5329 5330 5329 5329 5329 5329 5330 5329 5329 5330 5330 5330 5330 5329 5328 5328 5328 5332 5338 5342 5339 5343 5344 5350 5358 5358 5359 5360 5362 5365 5368 5371 5375 5379 5381
5315 5315 5315 5316 5316 5316 5315 5315 5316 5315 5314 5315 5315 5316 5315 5315 5315 5314 5313 5313 5315 5320 5323 5321 5324 5326 5328 5337 5342 5344 5345 5347 5350 5353 5356 5360 5364 5367
5302 5301 5301 5302 5302 5302 5302 5302 5301 5300 5300 5300 5301 5302 5302 5302 5301 5301 5301 5300 5301 5304 5306 5304 5307 5309 5311 5317 5325 5330 5330 5332 5334 5339 5343 5347 5350 5354
5287 5288 5288 5287 5287 5287 5287 5287 5286 5285 5285 5286 5287 5288 5288 5288 5288 5288 5288 5288 5289 5291 5292 5291 5292 5295 5296 5301 5308 5312 5315 5319 5321 5325 5329 5333 5337 5341
5272 5273 5273 5273 5272 5273 5273 5272 5271 5271 5271 5272 5273 5274 5274 5274 5275 5275 5275 5275 5276 5280 5280 5280 5281 5282 5284 5287 5291 5297 5299 5303 5309 5311 5315 5321 5325 5329
5258 5258 5258 5258 5258 5258 5257 5257 5256 5256 5257 5258 5259 5260 5261 5262 5263 5263 5262 5263 5264 5267 5270 5270 5270 5271 5274 5276 5280 5285 5288 5292 5295 5298 5301 5308 5315 5318
5245 5245 5245 5244 5244 5244 5244 5244 5243 5243 5244 5244 5246 5247 5248 5249 5250 5251 5251 5251 5253 5255 5257 5258 5258 5260 5263 5268 5271 5274 5276 5279 5282 5285 5287 5293 5303 5308
5233 5232 5232 5231 5231 5231 5231 5231 5231 5231 5231 5232 5233 5234 5235 5236 5237 5239 5239 5240 5242 5244 5245 5246 5246 5246 5250 5258 5265 5263 5264 5267 5269 5272 5276 5280 5288 5297
5220 5219 5219 5219 5219 5219 5219 5219 5220 5220 5220 5221 5222 5222 5223 5224 5226 5227 5228 5229 5230 5232 5235 5236 5236 5236 5238 5244 5250 5254 5254 5255 5257 5261 5265 5269 5276 5282
5208 5208 5207 5207 5207 5207 5208 5208 5209 5210 5210 5211 5211 5212 5212 5213 5214 5216 5217 5219 5220 5221 5224 5226 5227 5226 5227 5229 5235 5244 5245 5244 5245 5248 5252 5255 5262 5269
5197 5197 5197 5196 5196 5197 5197 5198 5199 5200 5200 5201 5202 5202 5203 5203 5204 5205 5207 5208 5210 5212 5214 5216 5216 5216 5216 5219 5225 5231 5234 5235 5236 5238 5240 5245 5248 5257
5187 5187 5186 5186 5186 5187 5187 5188 5189 5190 5191 5192 5193 5193 5194 5194 5195 5197 5198 5199 5200 5202 5203 5205 5206 5206 5208 5210 5213 5217 5221 5224 5226 5229 5234 5238 5241 5247